• In Moldova, Republic
  • List of Countries
  • For 7 days
  • Water Temperature
  • Satellite Maps
  • Weather Map
  • Weather Widgets
  • user-avatar
    Login

    Hourly Weather Tibissa

    Today, 21 January, Monday

    Time Temperature Precipitation Wind Pressure Humidity
    00:00 +3°C° 0 mm 5 mps 678 mmHg 83%
    01:00 +3°C° 0 mm 5 mps 679 mmHg 81%
    02:00 +3°C° 0 mm 5 mps 678 mmHg 83%
    03:00 +5°C° 0 mm 5 mps 678 mmHg 84%
    04:00 +5°C° 0 mm 4 mps 678 mmHg 86%
    05:00 +4°C° 0 mm 4 mps 678 mmHg 87%
    06:00 +4°C° 0 mm 3 mps 678 mmHg 88%
    07:00 +4°C° 0 mm 3 mps 678 mmHg 89%
    08:00 +5°C° 0 mm 3 mps 678 mmHg 82%
    09:00 +7°C° 0 mm 3 mps 678 mmHg 76%
    10:00 +9°C° 0 mm 3 mps 679 mmHg 69%
    11:00 +8°C° 0 mm 4 mps 679 mmHg 63%
    12:00 +9°C° 0 mm 5 mps 679 mmHg 57%
    13:00 +10°C° 0 mm 7 mps 679 mmHg 51%
    14:00 +10°C° 0.2 mm 7 mps 679 mmHg 55%
    15:00 +9°C° 0.2 mm 7 mps 679 mmHg 59%
    16:00 +7°C° 0.2 mm 8 mps 679 mmHg 63%
    17:00 +6°C° 0.2 mm 8 mps 679 mmHg 69%
    18:00 +5°C° 0.2 mm 8 mps 680 mmHg 74%
    19:00 +4°C° 0.2 mm 7 mps 680 mmHg 79%
    20:00 +4°C° 0 mm 7 mps 680 mmHg 81%
    21:00 +3°C° 0 mm 6 mps 680 mmHg 82%
    22:00 +3°C° 0 mm 6 mps 681 mmHg 84%
    23:00 +2°C° 0 mm 5 mps 681 mmHg 87%

    Tomorrow, 22 January, Tuesday

    Time Temperature Precipitation Wind Pressure Humidity
    00:00 +3°C° 0 mm 4 mps 681 mmHg 89%
    01:00 +1°C° 0 mm 4 mps 681 mmHg 91%
    02:00 +1°C° 0 mm 4 mps 681 mmHg 91%
    03:00 +1°C° 0 mm 4 mps 681 mmHg 92%
    04:00 +2°C° 0 mm 3 mps 681 mmHg 92%
    05:00 +2°C° 0 mm 3 mps 681 mmHg 93%
    06:00 +1°C° 0 mm 3 mps 681 mmHg 94%
    07:00 +2°C° 0 mm 2 mps 681 mmHg 94%
    08:00 +2°C° 0 mm 3 mps 681 mmHg 85%
    09:00 +3°C° 0 mm 3 mps 681 mmHg 77%
    10:00 +4°C° 0 mm 3 mps 682 mmHg 68%
    11:00 +5°C° 0 mm 3 mps 681 mmHg 62%
    12:00 +5°C° 0 mm 3 mps 681 mmHg 56%
    13:00 +7°C° 0 mm 3 mps 681 mmHg 50%
    14:00 +7°C° 0.2 mm 2 mps 680 mmHg 50%
    15:00 +7°C° 0.2 mm 2 mps 680 mmHg 49%
    16:00 +8°C° 0.2 mm 2 mps 679 mmHg 49%
    17:00 +7°C° 0.3 mm 2 mps 679 mmHg 55%
    18:00 +7°C° 0.3 mm 1 mps 679 mmHg 61%
    19:00 +7°C° 0.3 mm 1 mps 679 mmHg 67%
    20:00 +6°C° 0.2 mm 1 mps 679 mmHg 69%
    21:00 +6°C° 0.2 mm 1 mps 679 mmHg 70%
    22:00 +5°C° 0.2 mm 2 mps 678 mmHg 72%
    23:00 +4°C° 0 mm 2 mps 678 mmHg 74%

    Day after tomorrow, 23 January, Wednesday

    Time Temperature Precipitation Wind Pressure Humidity
    00:00 +4°C° 0 mm 1 mps 677 mmHg 76%
    01:00 +4°C° 0 mm 1 mps 677 mmHg 78%
    02:00 +3°C° 0 mm 1 mps 676 mmHg 78%
    03:00 +3°C° 0 mm 1 mps 676 mmHg 79%
    04:00 +3°C° 0 mm 1 mps 675 mmHg 79%
    05:00 +3°C° 0 mm 1 mps 675 mmHg 78%
    06:00 +3°C° 0 mm 1 mps 674 mmHg 77%
    07:00 +3°C° 0 mm 1 mps 674 mmHg 76%
    08:00 +3°C° 0 mm 2 mps 674 mmHg 72%
    09:00 +3°C° 0 mm 3 mps 674 mmHg 67%
    10:00 +4°C° 0 mm 4 mps 675 mmHg 63%
    11:00 +3°C° 0.2 mm 5 mps 674 mmHg 63%
    12:00 +4°C° 0.2 mm 6 mps 674 mmHg 63%
    13:00 +4°C° 0.2 mm 8 mps 673 mmHg 63%
    14:00 +3°C° 0 mm 9 mps 673 mmHg 61%
    15:00 +3°C° 0 mm 9 mps 673 mmHg 58%
    16:00 +5°C° 0 mm 10 mps 672 mmHg 55%
    17:00 +3°C° 0 mm 9 mps 672 mmHg 59%
    18:00 +3°C° 0 mm 7 mps 672 mmHg 63%
    19:00 +2°C° 0 mm 6 mps 671 mmHg 68%
    20:00 +2°C° 0 mm 7 mps 671 mmHg 69%
    21:00 +1°C° 0 mm 8 mps 670 mmHg 70%
    22:00 +1°C° 0 mm 8 mps 670 mmHg 70%
    23:00 +1°C° 0.4 mm 9 mps 670 mmHg 73%

    24 January, Thursday

    Time Temperature Precipitation Wind Pressure Humidity
    00:00 +1°C° 0.4 mm 9 mps 669 mmHg 76%
    01:00 +2°C° 0.4 mm 10 mps 669 mmHg 79%
    02:00 0°C° 0.7 mm 10 mps 668 mmHg 83%
    03:00 -1°C° 0.7 mm 9 mps 667 mmHg 87%
    04:00 -3°C° 0.7 mm 9 mps 667 mmHg 91%
    05:00 -4°C° 0.4 mm 9 mps 667 mmHg 88%
    06:00 -4°C° 0.4 mm 10 mps 667 mmHg 86%
    07:00 -4°C° 0.4 mm 10 mps 667 mmHg 84%
    08:00 -5°C° 0.1 mm 12 mps 666 mmHg 80%
    09:00 -5°C° 0.1 mm 14 mps 666 mmHg 76%
    10:00 -5°C° 0.1 mm 16 mps 666 mmHg 72%
    11:00 -5°C° 0.1 mm 19 mps 665 mmHg 70%
    12:00 -4°C° 0.1 mm 22 mps 665 mmHg 68%
    13:00 -3°C° 0.1 mm 25 mps 664 mmHg 66%
    14:00 -2°C° 0.5 mm 23 mps 665 mmHg 70%
    15:00 -4°C° 0.5 mm 21 mps 665 mmHg 75%
    16:00 -3°C° 0.5 mm 19 mps 666 mmHg 79%
    17:00 -3°C° 1.6 mm 16 mps 667 mmHg 84%
    18:00 -2°C° 1.6 mm 14 mps 668 mmHg 90%
    19:00 -3°C° 1.6 mm 11 mps 669 mmHg 95%
    20:00 -3°C° 0.2 mm 10 mps 670 mmHg 95%
    21:00 -3°C° 0.2 mm 9 mps 670 mmHg 95%
    22:00 -2°C° 0.2 mm 8 mps 671 mmHg 95%
    23:00 -2°C° 0 mm 8 mps 671 mmHg 96%

    25 January, Friday

    Time Temperature Precipitation Wind Pressure Humidity
    00:00 -2°C° 0 mm 7 mps 672 mmHg 96%
    01:00 -2°C° 0 mm 7 mps 672 mmHg 96%
    02:00 -2°C° 0 mm 8 mps 673 mmHg 97%
    03:00 -1°C° 0 mm 8 mps 673 mmHg 98%
    04:00 -1°C° 0 mm 9 mps 674 mmHg 98%
    05:00 -2°C° 0.1 mm 11 mps 674 mmHg 97%
    06:00 -2°C° 0.1 mm 12 mps 675 mmHg 96%
    07:00 -2°C° 0.1 mm 13 mps 675 mmHg 95%
    08:00 -2°C° 0.1 mm 13 mps 676 mmHg 94%
    09:00 -2°C° 0.1 mm 12 mps 677 mmHg 94%
    10:00 -2°C° 0.1 mm 11 mps 677 mmHg 93%
    11:00 -2°C° 0.1 mm 11 mps 678 mmHg 92%
    12:00 -2°C° 0.1 mm 12 mps 678 mmHg 92%
    13:00 -2°C° 0.1 mm 12 mps 678 mmHg 91%
    14:00 -2°C° 0.1 mm 11 mps 679 mmHg 90%
    15:00 -1°C° 0.1 mm 11 mps 679 mmHg 90%
    16:00 -1°C° 0.1 mm 11 mps 679 mmHg 89%
    17:00 -2°C° 0.1 mm 10 mps 679 mmHg 90%
    18:00 -2°C° 0.1 mm 10 mps 680 mmHg 91%
    19:00 -1°C° 0.1 mm 9 mps 680 mmHg 92%
    20:00 -1°C° 0.1 mm 9 mps 681 mmHg 92%
    21:00 -1°C° 0.1 mm 8 mps 681 mmHg 93%
    22:00 -2°C° 0.1 mm 8 mps 682 mmHg 93%
    23:00 -2°C° 0.1 mm 8 mps 682 mmHg 93%

    26 January, Saturday

    Time Temperature Precipitation Wind Pressure Humidity
    00:00 -3°C° 0.1 mm 9 mps 682 mmHg 93%
    01:00 -3°C° 0.1 mm 9 mps 682 mmHg 93%
    02:00 -2°C° 0.1 mm 8 mps 682 mmHg 93%
    03:00 -2°C° 0.1 mm 8 mps 682 mmHg 93%
    04:00 -2°C° 0.1 mm 7 mps 682 mmHg 93%
    05:00 -2°C° 0 mm 7 mps 682 mmHg 93%
    06:00 -2°C° 0 mm 7 mps 682 mmHg 92%
    07:00 -2°C° 0 mm 7 mps 682 mmHg 92%
    08:00 -2°C° 0 mm 7 mps 683 mmHg 91%
    09:00 -1°C° 0 mm 8 mps 683 mmHg 89%
    10:00 -1°C° 0 mm 9 mps 684 mmHg 87%
    11:00 0°C° 0 mm 9 mps 684 mmHg 85%
    12:00 +1°C° 0 mm 9 mps 684 mmHg 82%
    13:00 +1°C° 0 mm 10 mps 684 mmHg 79%
    14:00 +2°C° 0 mm 9 mps 684 mmHg 79%
    15:00 +2°C° 0 mm 9 mps 683 mmHg 78%
    16:00 +2°C° 0 mm 9 mps 683 mmHg 77%
    17:00 +2°C° 0 mm 7 mps 684 mmHg 79%
    18:00 +2°C° 0 mm 6 mps 684 mmHg 81%
    19:00 +1°C° 0 mm 5 mps 684 mmHg 83%
    20:00 +1°C° 0 mm 5 mps 684 mmHg 82%
    21:00 +1°C° 0 mm 4 mps 684 mmHg 82%
    22:00 +1°C° 0 mm 4 mps 684 mmHg 81%
    23:00 0°C° 0 mm 4 mps 684 mmHg 82%
    Show more